Regional Weather Roundup
Issued by NWS San Angelo, TX

Home | Current Version | Previous Version | Text Only | Print | Product List | Glossary On
Versions: 1 2 3 4 5 6 7 8 9 10 11 12 13 14 15 16 17 18 19 20 21 22 23 24 25 26 27 28 29 30 31 32 33 34 35 36 37 38 39 40 41 42 43 44 45 46 47 48 49 50
000
ASUS44 KSJT 292110
RWRSJT
WEST CENTRAL TEXAS REGIONAL WEATHER ROUNDUP
NATIONAL WEATHER SERVICE SAN ANGELO TX
400 PM CDT SUN MAR 29 2015

NOTE: "FAIR" INDICATES FEW OR NO CLOUDS BELOW 12,000 FEET WITH NO
SIGNIFICANT WEATHER AND/OR OBSTRUCTIONS TO VISIBILITY.

TXZ049-054-064>066-071>073-076>078-098-099-113-114-127-128-139-140-
154-155-168>170-292200
...LOCATIONS ACROSS WEST CENTRAL TEXAS...

CITY           SKY/WX    TMP DP  RH WIND       PRES   REMARKS
SAN ANGELO     SUNNY     91  44  19 S14       29.96F
ABILENE        SUNNY     89  50  26 SW13      29.95F
DYESS AFB      SUNNY     90  48  23 NW13G22   29.94S
JUNCTION       SUNNY     89  44  20 SW14      29.98F
SWEETWATER     SUNNY     89  32  13 NW16      30.02S
BROWNWOOD      SUNNY     88  50  27 S14       29.94F
COLEMAN        CLEAR     92  50  23 SW16      29.94F
SONORA         SUNNY     86  45  23 S10G17    30.05F
OZONA          FAIR      88  43  20 SW10      30.04F
BRADY          SUNNY     91  48  22 S10       29.96F
$$

TEXAS PANHANDLE/OKLAHOMA PANHANDLE

CITY           SKY/WX    TMP DP  RH WIND       PRES   REMARKS
AMARILLO       SUNNY     73  22  14 N24G35    30.18S
BORGER         SUNNY     74  20  13 N22G31    30.17F
CANADIAN       SUNNY     77  22  12 N21G32    30.11F
DALHART        PTSUNNY   72  20  14 N22G29    30.21F
DUMAS          CLEAR     70  23  17 N21G28    30.20S
GUYMON         NOT AVBL
HEREFORD       PTCLDY    77  28  16 NE22G29   30.18F
PAMPA          CLEAR     73  22  14 N23G33    30.16F
PERRYTON       SUNNY     73  27  18 N23G30    30.14F
$$

SOUTHERN PANHANDLE/SOUTH PLAINS/ROLLING PLAINS

CITY           SKY/WX    TMP DP  RH WIND       PRES   REMARKS
LUBBOCK        PTSUNNY   82  28  14 NE25G32   30.09S
SNYDER         SUNNY     87  38  17 N18G31    30.02R
CHILDRESS      SUNNY     82  30  15 N25G37    30.06R
SEMINOLE       CLEAR     85  31  14 E16G24    30.09S
$$

PERMIAN BASIN

CITY           SKY/WX    TMP DP  RH WIND       PRES   REMARKS
MIDLAND        SUNNY     90  35  14 N12       30.03F
ODESSA         SUNNY     89  27  10 N13G30    30.05F
WINK           SUNNY     92  24   8 N10G18    30.01F
$$

FAR WEST/SOUTHWEST MOUNTAINS/TRANS PECOS

CITY           SKY/WX    TMP DP  RH WIND       PRES   REMARKS
ALPINE         CLEAR     85  19   9 E8G17     30.20F
DRYDEN           N/A     91  43  18 SE10      29.99F
EL PASO        PTSUNNY   85   7   5 SW8       30.12F
FORT STOCKTON  SUNNY     88  25  10 N6        30.06F
GUADALUPE PASS MOSUNNY   83  14   7 W18       30.21F
MARFA          SUNNY     84  23  10 SW13G20   30.18F
PECOS          CLEAR     90  31  12 NW12      30.02F
$$

DALLAS/FORT WORTH METROPLEX

CITY           SKY/WX    TMP DP  RH WIND       PRES   REMARKS
DFW AIRPORT    MOSUNNY   82  59  45 S21       29.94F
FTW MEACHAM    SUNNY     84  59  42 S17G25    29.93S
DAL-EXECUTIVE  SUNNY     82  57  42 S16G26    29.94F
GRAND PRAIRIE  SUNNY     82  59  44 S13G24    29.97F
ADDISON        SUNNY     82  55  39 S18G25    29.95F
MESQUITE       CLEAR     81  55  41 S21G32    29.97F
LANCASTER      CLEAR     80  56  43 S18G30    29.97F
$$

NORTH CENTRAL TEXAS

CITY           SKY/WX    TMP DP  RH WIND       PRES   REMARKS
SHRMAN/DENISON CLEAR     82  59  45 SW10G17   29.98R
GAINESVILLE    SUNNY     81  55  41 S12       29.98S
BRIDGEPORT     CLEAR     86  57  36 S12G17    29.94F
DENTON         SUNNY     83  57  41 S20G26    29.93F
WAXAHACHIE     CLEAR     81  59  47 S17G29    29.98F
GRANBURY         N/A     88  55  32 SE15G21   29.93F
$$

WESTERN NORTH TEXAS

CITY           SKY/WX    TMP DP  RH WIND       PRES   REMARKS
WICHITA FALLS  SUNNY     84  52  33 N18       29.96R
VERNON         CLEAR     83  29  14 N28G36    30.02R
BRECKENRIDGE   CLEAR     90  48  23 W15       29.93S
COMANCHE       SUNNY     88  53  30 SW17G25   29.95F
$$

CENTRAL AND SOUTH CENTRAL TEXAS

CITY           SKY/WX    TMP DP  RH WIND       PRES   REMARKS
AUSTIN/BERGSTM SUNNY     82  57  42 S20G30    30.02F
WACO           SUNNY     82  56  40 S20G26    29.99F
HILLSBORO      CLEAR     82  56  41 S25       29.97F
TEMPLE         SUNNY     82  54  36 S30G37    29.98F
KILLEEN-GRAY   SUNNY     84  53  34 S23       29.98F
FORT HOOD      SUNNY     85  52  32 S21G29    29.98F
GEORGETOWN     SUNNY     82  55  39 S17G26    30.00F
LAGO VISTA     FAIR      83  50  31 S13G26    30.03F
SAN MARCOS     SUNNY     82  55  39 S18G28    30.05F
NEW BRAUNFELS  SUNNY     84  58  40 S21       30.03F
RANDOLPH AFB   SUNNY     81  57  43 S17       30.04F
SAN ANTONIO    SUNNY     82  58  43 SE15G25   30.04F
STINSON        SUNNY     83  58  42 SE15      30.02F
PLEASANTON     NOT AVBL
LA GRANGE      SUNNY     82  61  49 S20       30.04F
GIDDINGS       CLEAR     81  54  40 S15G25    30.09F
$$

EAST TEXAS

CITY           SKY/WX    TMP DP  RH WIND       PRES   REMARKS
PARIS          NOT AVBL
CLARKSVILLE    NOT AVBL
TYLER          SUNNY     83  51  33 SW18G29   30.00F
LONGVIEW       SUNNY     84  52  33 S21G30    30.01F
PALESTINE      CLEAR     85  53  33 S14G24    30.04F
NACOGDOCHES    MOSUNNY   81  57  44 S18       30.06F
$$

TEXAS HILL COUNTRY AND EDWARDS PLATEAU

CITY           SKY/WX    TMP DP  RH WIND       PRES   REMARKS
LLANO          CLEAR     88  52  29 S15G21    30.01F
HORSESHOE BAY  FAIR      85  53  32 S13G21    30.01F
KERRVILLE      SUNNY     82  59  46 SE15G22   30.04F
FREDERICKSBRG  SUNNY     82  51  33 S13       30.02F
ROCKSPRINGS    NOT AVBL
HONDO          SUNNY     82  59  45 S17G23    30.04F
UVALDE         CLEAR     82  58  43 S10G16    30.03F
DEL RIO        SUNNY     86  54  33 S13G21    29.98F
$$

SOUTHEAST TEXAS

CITY           SKY/WX    TMP DP  RH WIND       PRES   REMARKS
COLLEGE STN    SUNNY     83  53  35 S18G30    30.05F
CALDWELL       CLEAR     81  52  36 S20G31    30.07F
CROCKETT       CLEAR     84  61  45 S15G24    30.08F
BRENHAM        SUNNY     83  58  42 S20G28    30.08S
HUNTSVILLE     SUNNY     82  57  42 S17G25    30.07S
CONROE         SUNNY     81  54  39 SW20G26   30.09F
HOUSTON BUSH   MOSUNNY   80  60  50 S15G28    30.10F
HOUSTON HOBBY  MOSUNNY   78  60  53 S21G29    30.11F
PERLAND        MOSUNNY   79  60  52 S16G28    30.14F
WHARTON        CLEAR     78  61  55 S24       30.13F
$$

THE UPPER TEXAS COAST

CITY           SKY/WX    TMP DP  RH WIND       PRES   REMARKS
ORANGE         CLEAR     76  59  54 S22G28    30.17F
PORT ARTHUR    PTSUNNY   78  63  59 S16       30.15F
GALVESTON      MOSUNNY   73  67  81 S13       30.16F
ANGLETON       PTSUNNY   76  62  62 S18       30.14F
BAY CITY       MOCLDY    77  65  66 S18G28    30.14F
$$

TEXAS COASTAL BEND, RIO GRANDE PLAINS DEEP SOUTH TEXAS

CITY           SKY/WX    TMP DP  RH WIND       PRES   REMARKS
VICTORIA       SUNNY     80  61  52 S21G31    30.10F
BEEVILLE       FAIR      82  64  54 SE15G25   30.06F
ROCKPORT       SUNNY     77  63  61 S16G25    30.10F
PORT ARANSAS   CLEAR     73  65  77 S13G18    30.11F
PORT LAVACA    CLEAR     78  62  57 S24G32    30.12F
CORPUS CHRISTI SUNNY     78  65  63 SE31G39   30.08F
KINGSVILLE NAS MOSUNNY   84  67  56 SE17G26   30.05F
COTULLA        SUNNY     88  57  34 SE18G25   30.00F
LAREDO         SUNNY     88  58  36 SE15      30.01F
BROWNSVILLE    MOSUNNY   79  64  60 SE21G33   30.10F
PORT ISABEL    MOSUNNY   79  64  60 S25G35    30.08F
HEBBRONVILLE   NOT AVBL
MCALLEN        SUNNY     86  63  45 SE22G30   30.05F
WESLACO        SUNNY     82  60  46 S21G29    30.06F
FALFURRIAS     CLEAR     84  57  39 S16       30.05F
EDINBURG       CLEAR     85  57  38 S17G24    30.06F
$$



USA.gov is the U.S. government's official web portal to all federal, state and local government web resources and services.